TOURFACTS.DK  
Stats and Facts from Tour de France.

Tour de France 2018 starts in 202 days
  Riders   Stages   Teams   Summits   Yearly  


 
Search by year

 2017 - St. 21:  14824 starters.
  5132 different riders.
  635 teams.
  2232 stages.
  454 restdays.
  439589.60 km.
  5653 abandonnees.


Top 3
Christopher Froome86:20:55
Rigoberto Uran86:21:49
Romain Bardet86:23:15
Warren Barguil169 pt.
Primoz Roglic80 pt.
Thomas De Gendt64 pt.
Michael Matthews359 pt.
André Greipel234 pt.
Edvald Boasson Hagen220 pt.
Simon Yates86:27:09
Louis Meintjes86:29:15
Emanuel Buchmann86:54:16
Facts from Tour de France 2015
  |   Stages.  |   Stage winners.  |   Days in yellow  |   Average speed.  |   Route.  |   Teams.  |   All riders.  |   Rookies.  |   Withdrawls.  |  

  |   GC.  |   Polka  |   Green  |   White  |   Summits. (In tour)  |   Summits. (Points)  |   Miscellaneous.  |  

Stage 9 on 12 - 07 - 2015
         Owning:    Christopher Froome      Daniel Teklehaimanot      Peter Sagan      Peter Sagan  

Pick a stage:  1 2 3 4 5 6 7 8 9 10 11 12 13 14 15 16 17 18 19 20 21
  VannesPlumelec | Dist: 28.00 km.

Average speed for all riders in stage:  50,093 km./hr.
    Place:Name:Team:Time:Km/h:
USATejay Van GarderenUSABMC Racing Team00:32:15  +  00:00:00=52,093 
ITADamiano CarusoUSABMC Racing Team00:32:15  +  00:00:00=52,093 
AUSRohan DennisUSABMC Racing Team00:32:15  +  00:00:00=52,093 
4 ITADaniel OssUSABMC Racing Team00:32:15  +  00:00:00=52,093 
5 ITAManuel QuinziatoUSABMC Racing Team00:32:15  +  00:00:00=52,093 
6 ESPSamuel SanchezUSABMC Racing Team00:32:15  +  00:00:00=52,093 
7 SUIMichael SchärUSABMC Racing Team00:32:15  +  00:00:00=52,093 
8 BELGreg Van AvermaetUSABMC Racing Team00:32:15  +  00:00:00=52,093 
9 SUIDanilo WyssUSABMC Racing Team00:32:15  +  00:00:00=52,093 
10 KENChristopher FroomeGBRSky Procycling00:32:16  +  00:00:01=52,066 
11 IOMPeter KennaughGBRSky Procycling00:32:16  +  00:00:01=52,066 
12 CZELeopold KönigGBRSky Procycling00:32:16  +  00:00:01=52,066 
13 NEDWout PoelsGBRSky Procycling00:32:16  +  00:00:01=52,066 
14 AUSRichie PorteGBRSky Procycling00:32:16  +  00:00:01=52,066 
15 FRANicolas RocheGBRSky Procycling00:32:16  +  00:00:01=52,066 
16 WALLuke RoweGBRSky Procycling00:32:16  +  00:00:01=52,066 
17 ENGIan StannardGBRSky Procycling00:32:16  +  00:00:01=52,066 
18 WALGeraint ThomasGBRSky Procycling00:32:16  +  00:00:01=52,066 
19 COLNairo QuintanaESPMovistar Team00:32:19  +  00:00:04=51,986 
20 COLWinner AnaconaESPMovistar Team00:32:19  +  00:00:04=51,986 
21 ESPJonathan CastroviejoESPMovistar Team00:32:19  +  00:00:04=51,986 
22 ENGAlex DowsettESPMovistar Team00:32:19  +  00:00:04=51,986 
23 ESPImanol ErvitiESPMovistar Team00:32:19  +  00:00:04=51,986 
24 ESPJosé Herrada LópezESPMovistar Team00:32:19  +  00:00:04=51,986 
25 ESPGorka Izaguirre InsaustiESPMovistar Team00:32:19  +  00:00:04=51,986 
26 ITAAdriano MaloriESPMovistar Team00:32:19  +  00:00:04=51,986 
27 ESPAlejandro ValverdeESPMovistar Team00:32:19  +  00:00:04=51,986 
28 ESPAlberto ContadorRUSTinkoff Saxo00:32:43  +  00:00:28=51,350 
29 ITAIvan BassoRUSTinkoff Saxo00:32:43  +  00:00:28=51,350 
30 ITADaniele BennatiRUSTinkoff Saxo00:32:43  +  00:00:28=51,350 
31 CZERoman KreuzigerRUSTinkoff Saxo00:32:43  +  00:00:28=51,350 
32 POLRafal MajkaRUSTinkoff Saxo00:32:43  +  00:00:28=51,350 
33 AUSMichael RogersRUSTinkoff Saxo00:32:43  +  00:00:28=51,350 
34 SVKPeter SaganRUSTinkoff Saxo00:32:43  +  00:00:28=51,350 
35 ITAMatteo TosattoRUSTinkoff Saxo00:32:43  +  00:00:28=51,350 
36 DENMichael ValgrenRUSTinkoff Saxo00:32:43  +  00:00:28=51,350 
37 ITAVincenzo NibaliKAZAstana Pro Team00:32:50  +  00:00:35=51,168 
38 NEDLars BoomKAZAstana Pro Team00:32:50  +  00:00:35=51,168 
39 SUIJakob FuglsangKAZAstana Pro Team00:32:50  +  00:00:35=51,168 
40 UKRAndriy GrivkoKAZAstana Pro Team00:32:50  +  00:00:35=51,168 
41 KAZDmitriy GruzdevKAZAstana Pro Team00:32:50  +  00:00:35=51,168 
42 URSTanel KangertKAZAstana Pro Team00:32:50  +  00:00:35=51,168 
43 ITAMichele ScarponiKAZAstana Pro Team00:32:50  +  00:00:35=51,168 
44 URSRein TaaramäeKAZAstana Pro Team00:32:50  +  00:00:35=51,168 
45 NEDLieuwe WestraKAZAstana Pro Team00:32:50  +  00:00:35=51,168 
46 SUIMathias FrankCHEIAM Cycling00:32:53  +  00:00:38=51,090 
47 AUTMatthias BrändleCHEIAM Cycling00:32:53  +  00:00:38=51,090 
48 FRASylvain ChavanelCHEIAM Cycling00:32:53  +  00:00:38=51,090 
49 NEDStef ClementCHEIAM Cycling00:32:53  +  00:00:38=51,090 
50 FRAJérôme CoppelCHEIAM Cycling00:32:53  +  00:00:38=51,090 
51 SUIMartin ElmigerCHEIAM Cycling00:32:53  +  00:00:38=51,090 
52 SUIReto HollensteinCHEIAM Cycling00:32:53  +  00:00:38=51,090 
53 COLJarlinson Pantano GomezCHEIAM Cycling00:32:53  +  00:00:38=51,090 
54 SUIMarcel WyssCHEIAM Cycling00:32:53  +  00:00:38=51,090 
55 POLMichal KwiatkowskiBELEtixx - Quick Step00:33:00  +  00:00:45=50,909 
56 IOMMark CavendishBELEtixx - Quick Step00:33:00  +  00:00:45=50,909 
57 POLMichal GolasBELEtixx - Quick Step00:33:00  +  00:00:45=50,909 
58 AUSMark RenshawBELEtixx - Quick Step00:33:00  +  00:00:45=50,909 
59 CZEZdenek StybarBELEtixx - Quick Step00:33:00  +  00:00:45=50,909 
60 ITAMatteo TrentinBELEtixx - Quick Step00:33:00  +  00:00:45=50,909 
61 COLRigoberto UranBELEtixx - Quick Step00:33:00  +  00:00:45=50,909 
62 BELJulien VermoteBELEtixx - Quick Step00:33:00  +  00:00:45=50,909 
63 PORRui CostaITALampre-Merida00:33:03  +  00:00:48=50,832 
64 ITAMatteo BonoITALampre-Merida00:33:03  +  00:00:48=50,832 
65 ITADavide CimolaiITALampre-Merida00:33:03  +  00:00:48=50,832 
66 HRVKristijan DurasekITALampre-Merida00:33:03  +  00:00:48=50,832 
67 PORNelson OliveiraITALampre-Merida00:33:03  +  00:00:48=50,832 
68 ESPRubén PlazaITALampre-Merida00:33:03  +  00:00:48=50,832 
69 ITAFilippo PozzatoITALampre-Merida00:33:03  +  00:00:48=50,832 
70 COLJosé SerpaITALampre-Merida00:33:03  +  00:00:48=50,832 
71 ESPRafael Valls FerriITALampre-Merida00:33:03  +  00:00:48=50,832 
72 NEDWilco KeldermanNLDTeam Lotto NL - Jumbo00:33:29  +  00:01:14=50,174 
73 NEDRobert GesinkNLDTeam Lotto NL - Jumbo00:33:29  +  00:01:14=50,174 
74 NEDSteven KruijswijkNLDTeam Lotto NL - Jumbo00:33:29  +  00:01:14=50,174 
75 NEDTom LeezerNLDTeam Lotto NL - Jumbo00:33:29  +  00:01:14=50,174 
76 GERPaul MartensNLDTeam Lotto NL - Jumbo00:33:29  +  00:01:14=50,174 
77 NEDBram TankinkNLDTeam Lotto NL - Jumbo00:33:29  +  00:01:14=50,174 
78 NEDLaurens ten DamNLDTeam Lotto NL - Jumbo00:33:29  +  00:01:14=50,174 
79 NEDJos Van EmdenNLDTeam Lotto NL - Jumbo00:33:29  +  00:01:14=50,174 
80 BELSep VanmarckeNLDTeam Lotto NL - Jumbo00:33:29  +  00:01:14=50,174 
81 FRAJean-Christophe PeraudFRAAg2r La Mondiale00:33:39  +  00:01:24=49,926 
82 BELJan BakelantsFRAAg2r La Mondiale00:33:39  +  00:01:24=49,926 
83 FRARomain BardetFRAAg2r La Mondiale00:33:39  +  00:01:24=49,926 
84 FRAMickaël CherelFRAAg2r La Mondiale00:33:39  +  00:01:24=49,926 
85 LUXBen GastauerFRAAg2r La Mondiale00:33:39  +  00:01:24=49,926 
86 FRADamien GaudinFRAAg2r La Mondiale00:33:39  +  00:01:24=49,926 
87 FRAChristophe RiblonFRAAg2r La Mondiale00:33:39  +  00:01:24=49,926 
88 BELJohan VansummerenFRAAg2r La Mondiale00:33:39  +  00:01:24=49,926 
89 FRAAlexis VuillermozFRAAg2r La Mondiale00:33:39  +  00:01:24=49,926 
90 NEDBauke MollemaUSATrek Factory Racing00:33:40  +  00:01:25=49,901 
91 COLJulián ArredondoUSATrek Factory Racing00:33:40  +  00:01:25=49,901 
92 BELStijn DevolderUSATrek Factory Racing00:33:40  +  00:01:25=49,901 
93 LUXLaurent DidierUSATrek Factory Racing00:33:40  +  00:01:25=49,901 
94 ESPMarkel IrizarUSATrek Factory Racing00:33:40  +  00:01:25=49,901 
95 LUXBob JungelsUSATrek Factory Racing00:33:40  +  00:01:25=49,901 
96 SUIGregory RastUSATrek Factory Racing00:33:40  +  00:01:25=49,901 
97 ESPHaimar ZubeldiaUSATrek Factory Racing00:33:40  +  00:01:25=49,901 
98 USAAndrew TalanskyUSATeam Cannondale - Garmin00:33:44  +  00:01:29=49,802 
99 AUSNathan HaasUSATeam Cannondale - Garmin00:33:44  +  00:01:29=49,802 
100 CANRyder HesjedalUSATeam Cannondale - Garmin00:33:44  +  00:01:29=49,802 
101 SLOKristjan KorenUSATeam Cannondale - Garmin00:33:44  +  00:01:29=49,802 
102 NEDSebastian LangeveldUSATeam Cannondale - Garmin00:33:44  +  00:01:29=49,802 
103 ENGDaniel MartinUSATeam Cannondale - Garmin00:33:44  +  00:01:29=49,802 
104 URSRamunas NavardauskasUSATeam Cannondale - Garmin00:33:44  +  00:01:29=49,802 
105 NEDDylan Van BaarleUSATeam Cannondale - Garmin00:33:44  +  00:01:29=49,802 
106 GEREmanuel BuchmannDEUBora-Argon 1800:33:47  +  00:01:32=49,729 
107 CZEJan BártaDEUBora-Argon 1800:33:47  +  00:01:32=49,729 
108 BELSam BennettDEUBora-Argon 1800:33:47  +  00:01:32=49,729 
109 AUSZakkari DempsterDEUBora-Argon 1800:33:47  +  00:01:32=49,729 
110 POLBartosz HuzarskiDEUBora-Argon 1800:33:47  +  00:01:32=49,729 
111 PORJosé João PimentaDEUBora-Argon 1800:33:47  +  00:01:32=49,729 
112 GERDominik NerzDEUBora-Argon 1800:33:47  +  00:01:32=49,729 
113 GERPaul VossDEUBora-Argon 1800:33:47  +  00:01:32=49,729 
114 FRAThibaut PinotFRAFDJ00:33:48  +  00:01:33=49,704 
115 FRASébastien ChavanelFRAFDJ00:33:48  +  00:01:33=49,704 
116 FRAArnaud DémareFRAFDJ00:33:48  +  00:01:33=49,704 
117 FRAAlexandre GeniezFRAFDJ00:33:48  +  00:01:33=49,704 
118 FRAMatthieu LadagnousFRAFDJ00:33:48  +  00:01:33=49,704 
119 SUISteve MorabitoFRAFDJ00:33:48  +  00:01:33=49,704 
120 FRAJérémy RoyFRAFDJ00:33:48  +  00:01:33=49,704 
121 FRABenoit VaugrenardFRAFDJ00:33:48  +  00:01:33=49,704 
122 FRATony GallopinBELLotto Soudal00:33:51  +  00:01:36=49,631 
123 DENLars BakBELLotto Soudal00:33:51  +  00:01:36=49,631 
124 BELThomas De GendtBELLotto Soudal00:33:51  +  00:01:36=49,631 
125 BELJens DebusschereBELLotto Soudal00:33:51  +  00:01:36=49,631 
126 GERAndré GreipelBELLotto Soudal00:33:51  +  00:01:36=49,631 
127 AUSAdam HansenBELLotto Soudal00:33:51  +  00:01:36=49,631 
128 GERMarcel SiebergBELLotto Soudal00:33:51  +  00:01:36=49,631 
129 BELTim WellensBELLotto Soudal00:33:51  +  00:01:36=49,631 
130 GERJohn DegenkolbDEUTeam Giant Alpecin00:33:52  +  00:01:37=49,606 
131 FRAWarren BarguilDEUTeam Giant Alpecin00:33:52  +  00:01:37=49,606 
132 NEDRoy CurversDEUTeam Giant Alpecin00:33:52  +  00:01:37=49,606 
133 NEDKoen De KortDEUTeam Giant Alpecin00:33:52  +  00:01:37=49,606 
134 GERSimon GeschkeDEUTeam Giant Alpecin00:33:52  +  00:01:37=49,606 
135 AUTGeorg PreidlerDEUTeam Giant Alpecin00:33:52  +  00:01:37=49,606 
136 NEDRamon SinkeldamDEUTeam Giant Alpecin00:33:52  +  00:01:37=49,606 
137 NEDAlbert TimmerDEUTeam Giant Alpecin00:33:52  +  00:01:37=49,606 
138 FRAPierre RollandFRATeam Europcar00:33:57  +  00:01:42=49,485 
139 FRABryan CoquardFRATeam Europcar00:33:57  +  00:01:42=49,485 
140 FRACyril GautierFRATeam Europcar00:33:57  +  00:01:42=49,485 
141 FRAYohann GèneFRATeam Europcar00:33:57  +  00:01:42=49,485 
142 FRABryan NauleauFRATeam Europcar00:33:57  +  00:01:42=49,485 
143 FRAPerrig QuemeneurFRATeam Europcar00:33:57  +  00:01:42=49,485 
144 FRARomain SicardFRATeam Europcar00:33:57  +  00:01:42=49,485 
145 FRAAngelo TulikFRATeam Europcar00:33:57  +  00:01:42=49,485 
146 FRAThomas VoecklerFRATeam Europcar00:33:57  +  00:01:42=49,485 
147 ARGEduardo SepulvedaFRABretagne - Séché Environnement00:34:01  +  00:01:46=49,388 
148 FRAFrédéric BrunFRABretagne - Séché Environnement00:34:01  +  00:01:46=49,388 
149 FRAAnthony DelaplaceFRABretagne - Séché Environnement00:34:01  +  00:01:46=49,388 
150 FRAPierrick FédrigoFRABretagne - Séché Environnement00:34:01  +  00:01:46=49,388 
151 FRABrice FeilluFRABretagne - Séché Environnement00:34:01  +  00:01:46=49,388 
152 FRAArmindo FonsecaFRABretagne - Séché Environnement00:34:01  +  00:01:46=49,388 
153 FRAArnaud GérardFRABretagne - Séché Environnement00:34:01  +  00:01:46=49,388 
154 FRAPierre-Luc PérichonFRABretagne - Séché Environnement00:34:01  +  00:01:46=49,388 
155 FRAFlorian VachonFRABretagne - Séché Environnement00:34:01  +  00:01:46=49,388 
156 ESPJoaquim RodriguezRUSTeam Katusha00:34:08  +  00:01:53=49,219 
157 ITAGiampaolo CarusoRUSTeam Katusha00:34:08  +  00:01:53=49,219 
158 ITAJacopo GuarnieriRUSTeam Katusha00:34:08  +  00:01:53=49,219 
159 AUTMarco HallerRUSTeam Katusha00:34:08  +  00:01:53=49,219 
160 NORAlexander KristoffRUSTeam Katusha00:34:08  +  00:01:53=49,219 
161 ESPAlberto LosadaRUSTeam Katusha00:34:08  +  00:01:53=49,219 
162 PORTiago PintoRUSTeam Katusha00:34:08  +  00:01:53=49,219 
163 ERIDaniel TeklehaimanotZAFMTN - Qhubeka P/B Samsung00:34:11  +  00:01:56=49,147 
164 NOREdvald Boasson HagenZAFMTN - Qhubeka P/B Samsung00:34:11  +  00:01:56=49,147 
165 ENGStephen CummingsZAFMTN - Qhubeka P/B Samsung00:34:11  +  00:01:56=49,147 
166 USATyler FarrarZAFMTN - Qhubeka P/B Samsung00:34:11  +  00:01:56=49,147 
167 RSAJacques Janse Van RensburgZAFMTN - Qhubeka P/B Samsung00:34:11  +  00:01:56=49,147 
168 RSAReinardt Janse Van RensburgZAFMTN - Qhubeka P/B Samsung00:34:11  +  00:01:56=49,147 
169 ERIMerhawi GhebremedhinZAFMTN - Qhubeka P/B Samsung00:34:11  +  00:01:56=49,147 
170 RSALouis MeintjesZAFMTN - Qhubeka P/B Samsung00:34:11  +  00:01:56=49,147 
171 BELSerge PauwelsZAFMTN - Qhubeka P/B Samsung00:34:11  +  00:01:56=49,147 
172 FRANicolas EdetFRACofidis – Solutions Crédits00:34:47  +  00:02:32=48,299 
173 FRAChristophe LaporteFRACofidis – Solutions Crédits00:34:47  +  00:02:32=48,299 
174 ESPLuis Angel MateFRACofidis – Solutions Crédits00:34:47  +  00:02:32=48,299 
175 ESPDaniel NavarroFRACofidis – Solutions Crédits00:34:47  +  00:02:32=48,299 
176 FRAFlorian SénéchalFRACofidis – Solutions Crédits00:34:47  +  00:02:32=48,299 
177 FRAJulien SimonFRACofidis – Solutions Crédits00:34:47  +  00:02:32=48,299 
178 FRAGeoffrey SoupeFRACofidis – Solutions Crédits00:34:47  +  00:02:32=48,299 
179 BELKenneth VanbilsenFRACofidis – Solutions Crédits00:34:47  +  00:02:32=48,299 
180 AUSLuke DurbridgeAUSOrica - GreenEDGE00:37:13  +  00:04:58=45,141 
181 AUSMichael MatthewsAUSOrica - GreenEDGE00:37:13  +  00:04:58=45,141 
182 CANSvein TuftAUSOrica - GreenEDGE00:37:13  +  00:04:58=45,141 
183 NEDPieter WeeningAUSOrica - GreenEDGE00:37:13  +  00:04:58=45,141 
184 ENGAdam YatesAUSOrica - GreenEDGE00:37:13  +  00:04:58=45,141 
185 ENGSimon YatesAUSOrica - GreenEDGE00:37:13  +  00:04:58=45,141 


Todays birthdays.

1911  Pierre Janvier
1919  Miguel Gual
1925  Jacques Marinelli
1943  Domingo Perurena
1955  Antonio Londoño
1969  José Castelblanco
1972  Bingen Fernandez
1975  Thierry Loder